{"data":{"norad_id":69851,"epoch":"2026-09-19T19:58:25.236192Z","epoch_age_seconds":79367,"freshness":"FRESH","line1":"1 69851U 26155D   26262.83223653 -.01819272  00000+0 -30594+1 0  9990","line2":"2 69851  89.0085  53.8142 0036184  11.4677 348.7290 13.49844585 10625","mean_motion":13.49844585,"eccentricity":0.0036184,"inclination_deg":89.0085,"raan_deg":53.8142,"arg_perigee_deg":11.4677,"mean_anomaly_deg":348.729,"bstar":-3.0594,"rev_number":1062,"period_min":106.6789477842,"perigee_km":1045.8698018349,"apogee_km":1099.7909625864,"semimajor_km":7450.9673822106,"source":"CELESTRAK","updated_at":"2026-09-20T09:00:25.134255Z"}}